Total_Precipitation_Accumulation
0.05 0.10 0.16 0.20 0.18 0.14 0.10 0.08 0.11 0.19 0.36 0.46 0.57 0.66 0.69 0.68 0.63 0.59 0.58 0.53 0.45 0.43 0.45 0.56 0.70 0.78 0.90 0.97 1.14 1.21 1.40 1.55 1.59 1.70 1.75 1.79 1.88 1.88 1.81 1.81 1.85 2.02 2.09 2.10
0.04 0.08 0.12 0.14 0.17 0.12 0.09 0.08 0.08 0.17 0.39 0.48 0.50 0.59 0.69 0.66 0.65 0.62 0.54 0.53 0.55 0.58 0.59 0.62 0.67 0.74 0.82 0.87 1.07 1.29 1.55 1.85 1.91 1.98 1.98 2.05 2.20 2.27 2.18 2.16 2.27 2.31 2.25 2.19
0.07 0.10 0.12 0.16 0.16 0.14 0.15 0.13 0.15 0.24 0.36 0.44 0.50 0.62 0.82 0.80 0.74 0.74 0.69 0.68 0.74 0.83 0.82 0.78 0.78 0.82 0.91 1.01 1.18 1.45 1.73 1.98 2.15 2.21 2.23 2.28 2.37 2.39 2.34 2.45 2.63 2.66 2.54 2.36
0.12 0.16 0.22 0.20 0.20 0.18 0.20 0.23 0.28 0.37 0.40 0.54 0.75 0.85 1.02 1.05 0.91 0.88 0.80 0.75 0.81 0.95 0.98 0.95 0.95 1.04 1.18 1.34 1.56 1.83 2.02 2.15 2.25 2.26 2.27 2.30 2.35 2.27 2.30 2.44 2.52 2.55 2.49 2.36
0.23 0.25 0.26 0.29 0.33 0.33 0.36 0.49 0.50 0.59 0.66 0.77 0.89 0.87 0.94 0.89 0.78 0.76 0.73 0.80 0.87 0.97 1.09 1.16 1.19 1.30 1.39 1.51 1.70 1.93 2.07 2.08 2.04 2.12 2.21 2.25 2.27 2.32 2.36 2.35 2.23 2.13 2.11 2.12
0.36 0.39 0.41 0.45 0.47 0.43 0.50 0.94 0.96 0.93 0.88 0.85 0.92 1.13 1.11 0.88 0.79 0.78 0.77 0.79 0.91 0.94 1.03 1.15 1.25 1.28 1.39 1.55 1.73 1.92 2.05 2.05 2.01 2.10 2.18 2.22 2.27 2.33 2.28 2.19 2.12 2.06 1.99 2.02
0.51 0.55 0.52 0.49 0.45 0.44 0.78 1.12 1.06 1.05 1.09 1.02 1.11 1.19 1.15 0.99 0.94 0.89 0.87 0.86 0.90 0.98 1.05 1.10 1.20 1.28 1.38 1.51 1.62 1.74 1.85 1.94 2.05 2.21 2.27 2.25 2.28 2.24 2.17 2.07 2.08 2.10 2.04 1.98
0.68 0.84 0.89 0.64 0.53 0.76 1.03 0.92 1.07 1.19 1.18 1.18 1.12 1.03 1.06 1.05 1.02 0.96 0.91 0.94 0.97 1.06 1.19 1.26 1.32 1.35 1.43 1.44 1.51 1.65 1.68 1.78 1.82 1.93 2.02 2.01 2.07 2.00 2.00 1.97 1.95 1.92 1.86 1.78
0.94 1.07 0.89 0.74 0.76 0.84 0.90 0.98 1.07 1.18 1.24 1.20 1.23 1.17 1.04 0.99 0.96 1.10 1.16 1.14 1.10 1.09 1.17 1.25 1.35 1.46 1.54 1.52 1.48 1.50 1.57 1.68 1.74 1.78 1.91 1.95 1.96 1.88 1.84 1.82 1.76 1.68 1.61 1.56
1.15 1.23 1.07 0.97 0.93 0.86 0.85 0.91 0.97 1.12 1.23 1.30 1.28 1.13 1.05 0.97 0.91 0.92 0.97 0.98 1.03 1.05 1.11 1.30 1.30 1.37 1.48 1.55 1.51 1.53 1.62 1.64 1.70 1.75 1.82 1.99 2.02 1.87 1.76 1.66 1.60 1.56 1.50 1.52
1.32 1.38 1.18 1.07 1.00 1.05 1.02 0.97 0.96 1.05 1.13 1.14 1.08 1.06 1.06 0.99 0.90 0.87 0.85 0.83 0.83 0.89 0.94 1.04 1.07 1.12 1.23 1.34 1.39 1.37 1.34 1.31 1.31 1.42 1.57 1.75 1.81 1.76 1.60 1.51 1.57 1.59 1.55 1.51
1.46 1.30 1.31 1.33 1.23 1.20 1.25 1.25 1.21 1.17 1.17 1.09 1.01 0.97 0.94 0.87 0.82 0.79 0.74 0.70 0.74 0.77 0.79 0.83 0.90 0.99 1.11 1.30 1.43 1.41 1.31 1.22 1.20 1.21 1.30 1.50 1.70 1.78 1.64 1.42 1.45 1.40 1.33 1.28
1.30 1.23 1.33 1.37 1.38 1.43 1.52 1.43 1.35 1.30 1.18 1.04 1.03 0.95 0.87 0.83 0.75 0.70 0.66 0.65 0.71 0.78 0.84 0.93 0.93 0.89 0.94 1.08 1.24 1.35 1.32 1.26 1.21 1.18 1.22 1.34 1.56 1.78 1.83 1.60 1.38 1.27 1.12 1.00
1.29 1.32 1.50 1.53 1.56 1.57 1.55 1.51 1.45 1.46 1.35 1.20 1.11 0.99 0.92 0.96 0.90 0.79 0.74 0.78 0.88 0.97 1.01 1.01 0.99 0.96 0.93 0.99 1.10 1.19 1.23 1.20 1.11 1.07 1.15 1.26 1.47 1.75 1.93 1.87 1.66 1.38 1.09 0.90
1.45 1.44 1.47 1.44 1.51 1.50 1.53 1.57 1.49 1.54 1.47 1.34 1.19 1.03 0.90 0.87 0.88 0.86 0.85 0.93 1.09 1.13 1.05 0.98 0.96 0.95 0.93 0.95 1.02 1.10 1.16 1.17 1.13 1.12 1.15 1.18 1.38 1.65 1.84 1.89 1.80 1.62 1.26 0.94
1.60 1.52 1.35 1.32 1.49 1.51 1.46 1.41 1.34 1.41 1.40 1.33 1.24 1.13 1.06 1.01 0.97 0.93 0.95 1.06 1.22 1.25 1.11 1.03 1.01 1.01 1.01 0.99 0.96 0.98 1.03 1.05 0.96 0.96 1.01 1.03 1.13 1.33 1.59 1.73 1.67 1.59 1.36 0.95
1.60 1.67 1.56 1.46 1.54 1.58 1.51 1.35 1.27 1.27 1.28 1.32 1.36 1.28 1.24 1.22 1.18 1.16 1.22 1.28 1.35 1.33 1.19 1.06 1.00 0.94 0.93 0.98 1.02 0.98 0.95 0.95 0.87 0.80 0.85 0.92 1.00 1.19 1.46 1.64 1.59 1.49 1.33 0.99
1.41 1.41 1.40 1.44 1.57 1.63 1.51 1.31 1.21 1.16 1.16 1.26 1.34 1.32 1.37 1.41 1.43 1.49 1.50 1.45 1.35 1.18 1.04 0.97 0.91 0.86 0.84 0.81 0.80 0.78 0.78 0.81 0.78 0.77 0.83 0.88 0.90 1.07 1.34 1.50 1.45 1.36 1.27 1.09
1.31 1.30 1.29 1.30 1.39 1.43 1.34 1.27 1.21 1.10 1.04 1.10 1.16 1.20 1.25 1.30 1.36 1.47 1.44 1.49 1.50 1.34 1.07 0.87 0.90 0.82 0.80 0.77 0.75 0.71 0.66 0.65 0.64 0.65 0.70 0.77 0.88 1.07 1.22 1.29 1.27 1.25 1.13 1.00
1.39 1.37 1.31 1.34 1.35 1.30 1.18 1.09 1.13 1.07 1.05 1.09 1.04 1.03 1.09 1.14 1.21 1.36 1.41 1.50 1.52 1.37 1.14 0.94 0.79 0.71 0.65 0.61 0.61 0.64 0.69 0.72 0.73 0.74 0.76 0.86 0.98 1.10 1.15 1.12 1.08 1.05 1.02 1.00
1.27 1.28 1.19 1.27 1.26 1.14 1.03 0.93 0.99 0.97 0.99 1.02 0.94 0.91 0.93 0.96 1.02 1.18 1.48 1.67 1.46 1.17 0.99 0.91 0.74 0.61 0.54 0.54 0.54 0.53 0.60 0.67 0.75 0.85 0.89 0.94 1.01 1.06 1.06 1.03 0.95 0.91 0.91 0.94
1.12 1.12 1.11 1.14 1.13 1.07 0.91 0.88 0.93 0.92 0.90 0.85 0.78 0.81 0.84 0.90 0.97 1.06 1.22 1.48 1.46 1.31 0.98 0.76 0.63 0.54 0.51 0.52 0.50 0.51 0.55 0.56 0.62 0.70 0.75 0.81 0.93 1.02 1.00 0.93 0.84 0.81 0.83 0.88
1.13 1.03 1.04 1.05 1.07 1.00 0.89 0.86 0.87 0.92 0.83 0.77 0.76 0.78 0.78 0.85 0.93 1.15 1.29 1.17 1.19 1.28 1.01 0.79 0.71 0.62 0.52 0.46 0.48 0.50 0.52 0.57 0.65 0.68 0.66 0.67 0.69 0.75 0.79 0.77 0.77 0.78 0.83 0.81
1.12 1.04 0.98 0.91 0.92 0.90 0.92 0.84 0.78 0.83 0.78 0.68 0.65 0.63 0.66 0.77 0.82 0.89 1.05 1.09 1.09 1.13 0.92 0.76 0.68 0.58 0.51 0.47 0.53 0.57 0.64 0.72 0.72 0.65 0.60 0.59 0.58 0.59 0.64 0.63 0.61 0.67 0.72 0.75
1.05 0.98 0.91 0.82 0.85 0.84 0.83 0.77 0.74 0.76 0.69 0.66 0.64 0.61 0.60 0.66 0.80 0.88 0.91 0.94 1.06 1.09 0.94 0.80 0.68 0.61 0.54 0.54 0.62 0.71 0.75 0.67 0.62 0.56 0.53 0.53 0.57 0.60 0.59 0.62 0.66 0.66 0.67 0.70
0.99 0.94 0.88 0.82 0.81 0.79 0.74 0.71 0.74 0.74 0.67 0.67 0.67 0.61 0.59 0.64 0.71 0.78 0.83 0.85 0.90 0.99 0.93 0.77 0.59 0.55 0.58 0.62 0.67 0.72 0.70 0.63 0.58 0.56 0.55 0.57 0.61 0.65 0.64 0.68 0.71 0.67 0.68 0.71
0.93 0.91 0.92 0.89 0.85 0.79 0.76 0.77 0.80 0.81 0.74 0.74 0.77 0.78 0.76 0.75 0.75 0.79 0.80 0.82 0.81 0.78 0.74 0.65 0.55 0.53 0.52 0.53 0.56 0.59 0.59 0.60 0.59 0.58 0.59 0.61 0.64 0.67 0.64 0.63 0.63 0.62 0.60 0.61